Flag for Germany Weather past 2 weeks in Garbsen, Lower Saxony, Germany

Now
64 °F

Passing clouds.


Feels Like: 64 °F
Forecast: 59 / 88 °F
Wind: 5 mph from Northeast

Location: Hannover

Current Time: Aug 29, 2015 at 9:39:29 PM

Latest Report: Aug 29, 2015 at 9:20 PM


Visibility: N/A

Pressure: 30.15 "Hg

Humidity: 83%

Dew point: 59 °F

Location of GarbsenLocation

Historic Weather in Garbsen — Graph

°F

Garbsen temperature yesterday

Maximum temperature yesterday: 68 °F (at 3:50 PM)
Minimum temperature yesterday: 55 °F (at 1:20 AM)
Average temperature yesterday: 60 °F

Past Weeks' High & Low Weather Summary

 TemperatureHumidityPressure
High81 °F (Aug 15, 2:50 PM)100% (Aug 14, 9:50 PM)30.30 "Hg (Aug 14, 9:50 PM)
Low48 °F (Aug 29, 6:50 AM)30% (Aug 22, 1:20 PM)29.59 "Hg (Aug 24, 6:20 PM)
Average65 °F79%29.96 "Hg
* Reported Aug 14 8:20 PM — Aug 29 8:20 PM, Garbsen, Weather by CustomWeather, © 2015

Note: Actual official high and low records may vary slightly from our data, if they occured in-between our weather recording intervals... More about our weather records

Advertising

Garbsen weather history for previous 24 hours

 ConditionsComfort  
Time TempWeatherWind HumidityBarometerVisibility
8:20 PM
Sat, Aug 29
66 °FSunny.5 mph78%30.15 "Hg10 mi
7:50 PM70 °FSunny.2 mph69%30.15 "Hg10 mi
7:20 PM73 °FSunny.2 mph57%30.15 "Hg10 mi
6:50 PM72 °FPassing clouds.6 mph61%30.15 "HgN/A
6:20 PM73 °FPassing clouds.5 mph53%30.15 "HgN/A
5:50 PM73 °FPassing clouds.6 mph53%30.15 "HgN/A
5:20 PM73 °FPassing clouds.6 mph53%30.15 "HgN/A
4:50 PM73 °FPassing clouds.6 mph53%30.18 "HgN/A
4:20 PM75 °FPassing clouds.8 mph54%30.18 "HgN/A
3:50 PM73 °FScattered clouds.6 mph50%30.18 "HgN/A
3:20 PM73 °FScattered clouds.8 mph50%30.18 "HgN/A
2:50 PM73 °FScattered clouds.9 mph50%30.18 "HgN/A
2:20 PM72 °FScattered clouds.9 mph53%30.21 "HgN/A
1:50 PM72 °FScattered clouds.12 mph53%30.21 "HgN/A
1:20 PM72 °FScattered clouds.10 mph57%30.21 "HgN/A
12:50 PM72 °FPassing clouds.8 mph53%30.24 "HgN/A
11:50 AM70 °FPassing clouds.8 mph57%30.24 "HgN/A
11:20 AM70 °FPassing clouds.7 mph60%30.24 "HgN/A
10:50 AM68 °FPassing clouds.8 mph64%30.24 "HgN/A
9:20 AM63 °FPassing clouds.5 mph83%30.24 "HgN/A
8:50 AM61 °FSunny.5 mph83%30.24 "Hg10 mi
7:50 AM55 °FSunny.3 mph100%30.21 "Hg10 mi
7:20 AM50 °FSleet. Fog.1 mph100%30.24 "Hg5 mi
6:50 AM48 °FSleet. Fog.3 mph100%30.21 "Hg5 mi
6:20 AM52 °FSleet. Fog.1 mph100%30.21 "Hg6 mi
5:50 AM52 °FCool.5 mph100%30.21 "HgN/A
5:20 AM50 °FCool.2 mph100%30.21 "Hg6 mi
4:50 AM52 °FFog.2 mph94%30.21 "Hg6 mi
4:20 AM52 °FFog.2 mph100%30.18 "HgN/A
3:50 AM54 °FFog.3 mph100%30.18 "HgN/A
3:20 AM52 °FFog.2 mph100%30.18 "HgN/A
2:50 AM52 °FFog.1 mph100%30.18 "HgN/A
2:20 AM54 °FFog.1 mph94%30.18 "HgN/A
1:50 AM54 °FFog.2 mph100%30.18 "HgN/A
1:20 AM54 °FFog.1 mph94%30.18 "HgN/A
12:50 AM54 °FFog.2 mph100%30.18 "HgN/A
12:20 AM54 °FClear.2 mph94%30.18 "Hg10 mi
11:50 PM
Fri, Aug 28
55 °FPassing clouds.3 mph94%30.15 "HgN/A
11:20 PM57 °FClear.6 mph88%30.15 "Hg10 mi
10:50 PM59 °FPassing clouds.5 mph88%30.15 "HgN/A
10:20 PM59 °FClear.6 mph88%30.15 "Hg10 mi
9:50 PM61 °FClear.6 mph83%30.12 "Hg10 mi
9:20 PM59 °FPassing clouds.5 mph82%30.12 "HgN/A
Weather by CustomWeather, © 2015

See weather overviewHow to use our weather pages